Regional Weather Roundup
Issued by NWS Midland/Odessa, TX

Skip options and go directly to product.
Home | Oldest Version | Previous Version | Current Version | All | Graphics & Text | Save Text | Print | Product List | Glossary On

Skip product version selection by date and time.   
922
ASUS44 KMAF 010910
RWRMAF
MIDLAND AREA WEATHER ROUNDUP
NATIONAL WEATHER SERVICE MIDLAND TX
400 AM CDT FRI JUL 01 2016

...IN SOUTHWEST TEXAS AND SOUTHEAST NEW MEXICO...

CITY           SKY/WX    TMP DP  RH WIND       PRES   REMARKS
ALPINE         PTCLDY    71  56  58 S6        30.19F
ANDREWS        FAIR      70  57  63 S6        30.07S
ARTESIA        CLEAR     73  57  56 SE9       30.06F
BIG SPRING     CLEAR     75  61  61 SE9       30.06R
CARLSBAD       CLEAR     74  57  55 S9        30.03F
DRYDEN           N/A     78  64  61 SE7       30.00S
FORT STOCKTON  CLEAR     72  57  59 SE6       30.04S
GUAD PASS      PTCLDY    70  53  54 NE14      30.20F
HOBBS          CLEAR     68  55  64 SE5       30.10S
MARFA          CLEAR    N/A N/A N/A N5        30.18F
MIDLAND AIRPK  CLEAR     78  60  53 SE8       30.06R
MIDLAND INTL   CLEAR     76  61  59 S8        30.05S
ODESSA         CLEAR     77  59  53 S8        30.06S
PECOS          CLEAR     74  59  59 E8        30.00F
PRESIDIO       FAIR      82  58  43 NE8       30.01S
SEMINOLE       CLEAR     70  57  63 CALM      30.08F
SNYDER           N/A     74  64  73 SE8       30.05R
WINK           CLEAR     74  61  63 SE8       30.02S
$$
...OTHER STATIONS IN TEXAS...

CITY           SKY/WX    TMP DP  RH WIND       PRES   REMARKS
ABILENE        PTCLDY    76  66  71 S10       30.02F
AMARILLO       CLOUDY    69  63  81 NE5       30.10R
AUSTIN         CLEAR     73  72  96 CALM      29.98S
BROWNSVILLE    CLEAR     78  76  93 SE6       29.95S
CORPUS CHRISTI PTCLDY    78  75  90 S5        29.95R
DALLAS FTW     PTCLDY    79  65  62 S3        29.98R
DEL RIO        CLEAR     81  69  67 E7        29.96R
EL PASO        PTCLDY    77  57  50 S7        30.04F
HOUSTON INT    PTCLDY    76  74  93 CALM      29.96S
LUBBOCK        CLOUDY    71  64  78 SE7       30.07F
SAN ANGELO       N/A    N/A N/A N/A MISG      30.01F
SAN ANTONIO    PTCLDY    75  71  87 E3        29.99S
WACO           CLEAR     73  68  84 CALM      29.98S
WICHITA FALLS  NOT AVBL
$$
...OTHER LOCATIONS IN NEW MEXICO...

CITY           SKY/WX    TMP DP  RH WIND       PRES   REMARKS
ALAMAGORDO     PTCLDY    72  45  37 N6        30.07S
ALBUQUERQUE    PTCLDY    73  49  42 S14       30.14F
CANNON AFB     CLOUDY    73  59  63 S8        30.12S
CLOVIS         CLOUDY    72  57  60 S9        30.11S
HOLLOMAN AFB   PTCLDY    74  50  41 S12       30.04F
ROSWELL        CLEAR     70  52  52 CALM      30.06F
RUIDOSO          N/A     63  45  51 CALM      30.30F
SANTA FE       CLOUDY    67  50  54 N6        30.23S
TRUTH OR CONSE CLOUDY    76  51  41 SW5       30.10S
TUCUMCARI      CLOUDY    73  56  54 SW7       30.09F
$$

USA.gov is the U.S. government's official web portal to all federal, state and local government web resources and services.